Miscellaneous Local Product
Issued by NWS North Platte, NE

Home | Current Version | Previous Version | Text Only | Print | Product List | Glossary On
Versions: 1 2 3 4 5 6 7 8 9 10 11 12 13 14 15 16 17 18 19 20 21 22 23 24 25 26 27 28 29 30 31 32 33 34 35 36 37 38 39 40 41 42 43 44 45 46 47 48 49 50
000
AXUS43 KLBF 310810
MISLBF


WESTERN AND NORTH CENTRAL NEBRASKA HOURLY WEATHER ROUNDUP
NATIONAL WEATHER SERVICE NORTH PLATTE NE
200 AM CST SAT JAN 31 2015

***STATIONS NOT REPORTING VARIABLES SUCH AS SKY/WEATHER OR
PRESSURE ARE PROVIDED BY THE NEBRASKA DEPARTMENT OF
ROADS...RAWS...AND APRS NETWORKS...AND ARE NOT UNDER
NATIONAL WEATHER SERVICE QUALITY CONTROL***

...OBSERVATIONS IN AND NEAR THE EASTERN PANHANDLE OF NEBRASKA...

CITY           SKY/WX    TMP DP  RH WIND       PRES   REMARKS
PINE RIDGE     CLOUDY    26  22  84 CALM      30.06F
CHADRON        CLOUDY    28  24  85 W3        30.07F
ALLIANCE       CLOUDY    28  26  92 N6        30.02F WCI  22
SIDNEY         CLOUDY    29  26  89 N6        30.00F WCI  23
WHITECLAY        N/A     27  22  82 CALM        N/A
CRESCENT LAKE    N/A     31  28  88 CALM        N/A
LISCO            N/A     33  28  81 CALM        N/A
LEWELLEN         N/A     35  31  85 CALM        N/A
$$

...OBSERVATIONS IN NORTH CENTRAL NEBRASKA...

CITY           SKY/WX    TMP DP  RH WIND       PRES   REMARKS
VALENTINE      CLOUDY    29  25  85 E5        30.05F WCI  24
THEDFORD       CLOUDY    36  33  88 CALM      30.05F
AINSWORTH      CLOUDY    34  30  84 SW6       30.06F WCI  29
O`NEILL        CLOUDY    34  29  84 SW6       30.09F WCI  29
ORD            CLOUDY    35  30  82 S8        30.11F WCI  29
BROKEN BOW     CLOUDY    37  33  85 S14G23    30.09F WCI  28
BROWNLEE         N/A     34  31  86 S7          N/A  WCI  28
VALENTINE NWR    N/A     32  28  83 CALM        N/A
SPRINGVIEW       N/A     27  24  86 CALM        N/A
BREWSTER         N/A     37  33  87 CALM        N/A
ROSE             N/A     35  33  92 SE5         N/A  WCI  31
NEWPORT          N/A     35  32  88 SW5         N/A  WCI  31
SARGENT          N/A     35  32  89 CALM        N/A
COMSTOCK         N/A     38  35  90 S8          N/A  WCI  32
CHAMBERS         N/A     36  30  80 SW6         N/A  WCI  31
EWING            N/A     37  33  84 SW7         N/A  WCI  31
$$

...OBSERVATIONS IN SOUTHWEST NEBRASKA AND FAR NORTHEAST COLORADO...

CITY           SKY/WX    TMP DP  RH WIND       PRES   REMARKS
WRAY           CLOUDY    36  34  92 E6        30.02F WCI  31
IMPERIAL       CLOUDY    34  32  92 SE9       30.03F WCI  27
OGALLALA       CLOUDY    36  32  88 CALM      30.04F
NORTH PLATTE   CLOUDY    36  32  85 S10       30.08F WCI  28
MCCOOK         CLOUDY    35  32  88 S7        30.09F WCI  29
LEXINGTON      CLOUDY    35  33  92 S12       30.12F WCI  27
BRADY            N/A     34  32  92 CALM        N/A
GOTHENBURG       N/A     34  31  89 S8          N/A  WCI  27
CALLAWAY         N/A     34  31  90 S12         N/A  WCI  25
$$

...NORTH PLATTE AREA...

CITY           SKY/WX    TMP DP  RH WIND       PRES   REMARKS
AIRPORT        CLOUDY    36  32  85 S10       30.08F WCI  28
DOWNTOWN         N/A     36  33  88 S3          N/A
$$

...SOME WEATHER OBSERVATIONS FROM AROUND THE REGION...

CITY           SKY/WX    TMP DP  RH WIND       PRES   REMARKS
DENVER         CLOUDY    35  25  66 N9        29.98F WCI  28
LARAMIE        CLOUDY    29  22  75 CALM      29.99F
CHEYENNE       CLOUDY    32  23  69 NW5       30.00F WCI  27
SCOTTSBLUFF    CLOUDY    35  26  69 N6        30.03S WCI  30
RAPID CITY     CLOUDY    29  22  75 N8        30.07F WCI  21
PIERRE         MOCLDY    28  23  81 N10       30.10F WCI  19
WINNER         FAIR      28  22  78 W5        30.09F WCI  23
SIOUX FALLS    PTCLDY    27  24  89 CALM      30.11S
OMAHA          CLOUDY    33  26  75 SE9       30.22F WCI  25
GRAND ISLAND   CLOUDY    36  32  85 S13       30.16F WCI  27
KANSAS CITY    CLOUDY    34  24  67 SW6       30.30F WCI  29
WICHITA        CLOUDY    39  24  55 SE5       30.23F
HAYS           CLOUDY    32  25  74 SE9       30.19F WCI  24
LIBERAL        CLOUDY    36  30  80 S14       30.16F WCI  27
GOODLAND       CLOUDY    34  32  92 S14       30.02F WCI  25
$$



USA.gov is the U.S. government's official web portal to all federal, state and local government web resources and services.